Погода в Кирилловке

Россия / Московская область     55°38′45″N   37°57′28″E
темп.,
°C
ветер,
м/с
пор.,
м/с
влажн.,
%
обл.,
%
осадки,
мм/ч
давл.,
гПа
погр.,
м
8 марта, пн
пн800:00−7з5138667 0.2 996468
03:00−10зюз3109441 0.2 996267
06:00−8зюз31193100 0.0 995495
09:00−7зсз5989100 0.5 997781
12:00−5сз5878100 0.3 10001241
15:00−5сз577898 0.3 10031115
18:00−8сз3788100 0.1 1006308
21:00−12ссз369479 0.1 1008142
9 марта, вт
вт900:00−14сз35960 0.0 1010109
03:00−16сз36960 0.0 1012140
06:00−17ссз379737 0.0 1014175
09:00−16ссз379347 0.0 1016282
12:00−13ссз368572 0.0 1017578
15:00−11ссз468285 0.0 1018811
18:00−14ссз3789100 0.0 1019214
21:00−19с369576 0.0 1022158
10 марта, ср
ср1000:00−22ссз25960 0.0 1023108
03:00−23ссз23960 0.0 102562
06:00−25ссз24960 0.0 102684
09:00−22с25930 0.0 1028243
12:00−17ссв247729 0.0 1028581
15:00−14с237021 0.0 1029846
18:00−17с22840 0.0 102920
21:00−20с22910 0.0 103020
11 марта, чт
чт1100:00−21ссз11890 0.0 103120
03:00−22зсз12870 0.0 103220
06:00−22з12880 0.0 103220
09:00−18з128422 0.0 1032129
12:00−13зюз22770 0.0 1032423
15:00−11юз22763 0.0 1031558
18:00−14ю22877 0.0 103021
21:00−17ю33913 0.0 103060
12 марта, пт
пт1200:00−20ю36900 0.0 1030106
03:00−21ююв39880 0.0 1029197
06:00−20ююв410900 0.0 1026257
09:00−17ююв5128721 0.0 1024350
12:00−11ююв71485100 0.0 1021544
15:00−8ююв81583100 0.0 1017872
18:00−8ююв91692100 0.7 10151140
21:00−8ююв91792100 1.8 10121145